FW2335 Weather Reports


time (UTC)temp
F
wind
direction
speed
knots
gust
knots
rain 1hr
in
rain 24hr
in
rain mn
in
humidity
%
barometer
mb
20260509135020 70 293 0.9 3.5 0.00 0.00 0.00 87 1012.3
20260509134601 69 293 1.7 5.2 0.00 0.00 0.00 87 1012.3
20260509134021 69 293 0.9 3.5 0.00 0.00 0.00 88 1012.3
20260509133524 69 293 1.7 5.2 0.00 0.00 0.00 89 1012.4
20260509133021 68 293 1.7 3.5 0.00 0.00 0.00 89 1012.5
20260509132521 68 293 1.7 3.5 0.00 0.00 0.00 90 1012.5
20260509132020 67 270 0.9 3.5 0.00 0.00 0.00 91 1012.5
20260509131521 67 270 0.9 2.6 0.00 0.00 0.00 91 1012.5
20260509131021 66 0.0 1.7 0.00 0.00 0.00 91 1012.5
20260509130520 66 270 2.6 6.1 0.00 0.00 0.00 91 1012.5
20260509130042 66 270 2.6 5.2 0.00 0.00 0.00 91 1012.5
20260509125521 66 270 2.6 6.1 0.00 0.00 0.00 91 1012.5
20260509125020 66 270 2.6 5.2 0.00 0.00 0.00 92 1012.4
20260509124522 66 270 2.6 7.0 0.00 0.00 0.00 93 1012.4
20260509124021 66 270 2.6 3.5 0.00 0.00 0.00 93 1012.3
20260509123520 66 270 1.7 3.5 0.00 0.00 0.00 93 1012.2
20260509123041 65 270 1.7 3.5 0.00 0.00 0.00 93 1012.2
20260509122521 65 270 2.6 3.5 0.00 0.00 0.00 93 1012.2
20260509122021 65 338 1.7 3.5 0.00 0.00 0.00 93 1012.1
20260509121521 65 338 1.7 2.6 0.00 0.00 0.00 93 1011.9
20260509121020 65 338 1.7 2.6 0.00 0.00 0.00 93 1011.9
20260509120521 65 338 0.9 1.7 0.00 0.00 0.00 93 1011.8
20260509120024 64 338 0.9 1.7 0.00 0.00 0.00 93 1011.7
20260509115520 64 338 1.7 2.6 0.00 0.00 0.00 92 1011.5
20260509115021 64 0.0 0.9 0.00 0.00 0.00 91 1011.5
20260509114521 64 0.0 0.9 0.00 0.00 0.00 91 1011.3
20260509114021 65 0.0 0.0 0.00 0.00 0.00 91 1011.1
20260509113641 65 0.0 0.0 0.00 0.00 0.00 91 1011.0
20260509113020 65 0.0 0.0 0.00 0.00 0.00 91 1011.0
20260509112543 65 0.0 0.0 0.00 0.00 0.00 91 1010.9
20260509112021 65 0.0 0.0 0.00 0.00 0.00 91 1010.9
20260509111520 66 0.0 0.9 0.00 0.00 0.00 91 1010.9
20260509111041 66 0.0 0.9 0.00 0.00 0.00 91 1010.9
20260509110521 66 0.0 0.9 0.00 0.00 0.00 91 1010.9
20260509110020 66 0.0 0.0 0.00 0.00 0.00 91 1010.8
20260509105540 67 0.0 1.7 0.00 0.00 0.00 91 1010.8
20260509105021 67 0.0 0.9 0.00 0.00 0.00 90 1010.8
20260509104600 67 0.0 0.9 0.00 0.00 0.00 90 1010.8
20260509104021 67 0.0 0.9 0.00 0.00 0.00 90 1010.8
20260509103526 67 0.0 1.7 0.00 0.00 0.00 90 1010.8
20260509103021 68 0.0 1.7 0.00 0.00 0.00 90 1010.7
20260509102541 68 338 0.9 2.6 0.00 0.00 0.00 90 1010.7
20260509102020 68 338 1.7 4.3 0.00 0.00 0.00 90 1010.7
20260509101520 68 315 1.7 4.3 0.00 0.00 0.00 90 1010.6
20260509101020 68 315 1.7 4.3 0.00 0.00 0.00 89 1010.5
20260509100520 68 68 1.7 3.5 0.00 0.00 0.00 90 1010.5
20260509100021 68 68 2.6 7.0 0.00 0.00 0.00 90 1010.4
20260509095522 68 90 3.5 7.0 0.00 0.00 0.00 89 1010.4
20260509095022 68 338 1.7 3.5 0.00 0.00 0.00 89 1010.5
20260509094522 68 338 1.7 3.5 0.00 0.00 0.00 89 1010.5
20260509094022 69 68 1.7 3.5 0.00 0.00 0.00 89 1010.5
20260509093520 69 68 3.5 7.0 0.00 0.00 0.00 89 1010.4
20260509093021 69 68 4.3 6.1 0.00 0.00 0.00 89 1010.4
20260509092522 69 68 4.3 7.0 0.00 0.00 0.00 88 1010.3
20260509092022 69 68 4.3 7.0 0.00 0.00 0.00 88 1010.3
20260509091523 69 68 5.2 7.0 0.00 0.00 0.00 88 1010.3
20260509091022 69 68 6.1 7.8 0.00 0.00 0.00 88 1010.5
20260509090524 69 45 6.1 8.7 0.00 0.00 0.00 88 1010.4
20260509090025 69 45 5.2 7.8 0.00 0.00 0.00 87 1010.5
20260509085522 69 45 4.3 6.1 0.00 0.00 0.00 87 1010.5
20260509085022 70 45 5.2 7.8 0.00 0.00 0.00 87 1010.5
20260509084521 70 45 6.1 8.7 0.00 0.00 0.00 86 1010.6
20260509084021 70 45 7.8 9.6 0.00 0.00 0.00 86 1010.8
20260509083522 70 45 7.0 10.4 0.00 0.00 0.00 86 1010.7
20260509083021 70 45 6.1 8.7 0.00 0.00 0.00 86 1010.6
20260509082524 71 45 5.2 7.8 0.00 0.00 0.00 86 1010.7
20260509082041 71 45 5.2 7.8 0.00 0.00 0.00 86 1010.9
20260509081522 71 45 5.2 7.8 0.00 0.00 0.00 86 1010.9
20260509081023 71 45 5.2 7.0 0.00 0.00 0.00 85 1010.7
20260509080522 71 45 4.3 5.2 0.00 0.00 0.00 85 1010.7
20260509080022 71 68 2.6 4.3 0.00 0.00 0.00 85 1010.7
20260509075523 71 90 2.6 6.1 0.00 0.00 0.00 84 1010.6
20260509075022 71 90 3.5 7.8 0.00 0.00 0.00 84 1010.6
20260509074522 72 90 3.5 8.7 0.00 0.00 0.00 85 1010.7
20260509074023 72 90 4.3 9.6 0.00 0.00 0.00 84 1010.6
20260509073522 72 90 6.1 9.6 0.00 0.00 0.00 84 1010.4
20260509073022 72 90 5.2 11.3 0.00 0.00 0.00 84 1010.3
20260509072543 72 90 7.0 12.2 0.00 0.00 0.00 84 1010.4
20260509072022 72 90 6.1 10.4 0.00 0.00 0.00 85 1010.7
20260509071522 72 90 7.0 13.0 0.00 0.00 0.00 85 1010.5
20260509071022 71 90 6.1 8.7 0.00 0.00 0.00 84 1010.0
20260509070522 71 90 7.8 12.2 0.00 0.00 0.00 84 1009.6
20260509070037 71 90 6.1 9.6 0.00 0.00 0.00 85 1009.8
20260509065542 72 90 5.2 8.7 0.00 0.00 0.00 84 1010.0
20260509065022 72 90 4.3 7.0 0.00 0.00 0.00 84 1010.0
20260509064522 72 90 4.3 7.8 0.00 0.00 0.00 84 1010.1
20260509064022 72 135 4.3 9.6 0.00 0.00 0.00 83 1010.3
20260509063526 72 113 4.3 10.4 0.00 0.00 0.00 83 1010.0
20260509063022 72 113 1.7 6.1 0.00 0.00 0.00 83 1010.7
20260509062542 72 248 1.7 7.0 0.00 0.00 0.00 83 1011.1
20260509062022 72 135 2.6 7.0 0.00 0.00 0.00 83 1010.8
20260509061522 72 90 1.7 4.3 0.00 0.00 0.00 83 1011.6
20260509061022 72 135 3.5 8.7 0.00 0.00 0.00 82 1010.8
20260509060522 72 135 2.6 4.3 0.00 0.00 0.00 82 1011.1
20260509060022 72 315 1.7 5.2 0.00 0.00 0.00 82 1011.3
20260509055522 72 113 1.7 3.5 0.00 0.00 0.00 82 1011.9
20260509055023 72 113 1.7 2.6 0.00 0.00 0.00 82 1011.7
20260509054522 73 23 2.6 4.3 0.00 0.00 0.00 82 1011.9
20260509054022 73 158 1.7 3.5 0.00 0.00 0.00 81 1011.5
20260509053522 73 158 0.9 3.5 0.00 0.00 0.00 81 1011.3
20260509053042 73 158 2.6 5.2 0.00 0.00 0.00 81 1011.7
20260509052523 73 293 2.6 8.7 0.00 0.00 0.00 81 1011.8
20260509052022 73 270 7.0 11.3 0.00 0.00 0.00 81 1012.2
20260509051522 73 225 7.8 13.9 0.00 0.00 0.00 80 1011.4
20260509051042 73 248 6.1 11.3 0.00 0.00 0.00 79 1011.5
20260509050544 73 270 5.2 10.4 0.00 0.00 0.00 79 1011.5
20260509050022 73 293 7.8 13.9 0.00 0.00 0.00 79 1011.4
20260509045524 73 270 7.8 17.4 0.00 0.00 0.00 80 1011.1
20260509045022 72 315 7.0 14.8 0.00 0.00 0.00 81 1011.2
20260509044522 72 225 11.3 20.0 0.00 0.00 0.00 82 1010.1
20260509044022 72 203 14.8 31.3 0.00 0.00 0.00 82 1009.1
20260509043522 71 158 8.7 33.0 0.00 0.00 0.00 84 1009.0
20260509043022 71 68 5.2 10.4 0.00 0.00 0.00 84 1010.5
20260509042522 71 203 8.7 15.6 0.00 0.00 0.00 83 1010.3
20260509042042 70 203 7.8 16.5 0.00 0.00 0.00 83 1010.5
20260509041522 71 203 7.8 13.9 0.00 0.00 0.00 82 1010.8
20260509041022 71 203 6.1 13.0 0.00 0.00 0.00 81 1011.4
20260509040522 71 248 3.5 7.0 0.00 0.00 0.00 81 1012.4
20260509040023 72 225 6.1 8.7 0.00 0.00 0.00 81 1011.9
20260509035521 71 270 3.5 7.0 0.00 0.00 0.00 81 1012.3
20260509035022 71 293 3.5 8.7 0.00 0.00 0.00 81 1012.9
20260509034522 71 293 3.5 7.8 0.00 0.00 0.00 82 1012.8
20260509034021 71 0 1.7 4.3 0.00 0.00 0.00 82 1012.5
20260509033522 71 45 2.6 3.5 0.00 0.00 0.00 81 1012.0
20260509033022 71 180 1.7 2.6 0.00 0.00 0.00 81 1011.6
20260509032542 71 180 1.7 2.6 0.00 0.00 0.00 81 1011.2
20260509032022 71 180 2.6 7.0 0.00 0.00 0.00 80 1010.7
20260509031521 71 203 4.3 8.7 0.00 0.00 0.00 80 1010.3
20260509031042 71 180 3.5 7.8 0.00 0.00 0.00 80 1010.1
20260509030542 71 158 3.5 7.8 0.00 0.00 0.00 80 1010.3
20260509030022 71 158 4.3 8.7 0.00 0.00 0.00 80 1010.3
20260509025521 71 158 3.5 7.0 0.00 0.00 0.00 79 1010.4
20260509025022 71 135 4.3 8.7 0.00 0.00 0.00 80 1010.8
20260509024522 71 135 4.3 9.6 0.00 0.00 0.00 79 1010.5
20260509024021 72 113 3.5 7.0 0.00 0.00 0.00 79 1010.6
20260509023602 72 135 4.3 9.6 0.00 0.00 0.00 79 1010.5
20260509023041 72 135 6.1 10.4 0.00 0.00 0.00 79 1010.1
20260509022522 72 135 4.3 8.7 0.00 0.00 0.00 78 1010.0
20260509022021 72 113 4.3 8.7 0.00 0.00 0.00 78 1010.0
20260509021522 72 113 4.3 7.8 0.00 0.00 0.00 78 1010.0
20260509021021 72 135 3.5 8.7 0.00 0.00 0.00 77 1009.6
20260509020522 73 180 5.2 10.4 0.00 0.00 0.00 77 1009.3
20260509020021 73 203 5.2 10.4 0.00 0.00 0.00 76 1009.3
20260509015521 73 203 4.3 7.8 0.00 0.00 0.00 76 1009.9
20260509015022 74 158 2.6 5.2 0.00 0.00 0.00 76 1010.2
20260509014521 74 68 0.9 3.5 0.00 0.00 0.00 76 1010.4
20260509014022 74 0.0 0.9 0.00 0.00 0.00 76 1010.4
20260509013542 74 0.0 0.9 0.00 0.00 0.00 76 1010.3
20260509013021 74 68 0.9 1.7 0.00 0.00 0.00 76 1009.9
20260509012521 74 68 0.9 2.6 0.00 0.00 0.00 75 1009.7
20260509012102 74 203 0.9 3.5 0.00 0.00 0.00 74 1009.4
20260509011523 74 180 2.6 7.8 0.00 0.00 0.00 73 1009.0
20260509011021 74 180 3.5 10.4 0.00 0.00 0.00 73 1008.8
20260509010522 75 180 4.3 10.4 0.00 0.00 0.00 73 1008.7
20260509010042 75 180 3.5 7.8 0.00 0.00 0.00 73 1008.4
20260509005522 75 180 5.2 11.3 0.00 0.00 0.00 72 1008.4
20260509005021 76 203 4.3 9.6 0.00 0.00 0.00 72 1008.6
20260509004522 76 203 5.2 11.3 0.00 0.00 0.00 71 1008.8
20260509004021 77 203 6.1 11.3 0.00 0.00 0.00 70 1008.9
20260509003521 77 203 5.2 8.7 0.00 0.00 0.00 70 1009.0
20260509003022 78 225 5.2 11.3 0.00 0.00 0.00 68 1009.1
20260509002521 78 203 2.6 7.0 0.00 0.00 0.00 68 1009.1
20260509002022 78 203 4.3 10.4 0.00 0.00 0.00 67 1009.0
20260509001542 79 203 4.3 7.8 0.00 0.00 0.00 67 1009.0
20260509001022 79 158 3.5 8.7 0.00 0.00 0.00 66 1008.9
20260509000541 79 203 2.6 7.8 0.00 0.00 0.00 66 1008.9
20260509000021 79 203 3.5 7.0 0.00 0.00 0.00 66 1008.9
20260508235522 79 180 4.3 10.4 0.00 0.00 0.00 66 1008.7
20260508235021 79 203 5.2 9.6 0.00 0.00 0.00 65 1008.6
20260508234521 80 180 5.2 12.2 0.00 0.00 0.00 66 1008.6
20260508234021 80 158 6.1 10.4 0.00 0.00 0.00 65 1008.5
20260508233522 80 180 6.1 12.2 0.00 0.00 0.00 65 1008.6
20260508233021 80 203 5.2 12.2 0.00 0.00 0.00 65 1008.6
20260508232521 80 203 5.2 13.0 0.00 0.00 0.00 65 1008.4
20260508232021 80 203 6.1 12.2 0.00 0.00 0.00 64 1008.4
20260508231521 81 203 6.1 16.5 0.00 0.00 0.00 63 1008.5
20260508231022 81 180 7.0 14.8 0.00 0.00 0.00 63 1008.4
20260508230541 82 203 4.3 11.3 0.00 0.00 0.00 63 1008.6
20260508230022 81 203 7.0 14.8 0.00 0.00 0.00 62 1008.6
20260508225541 81 203 7.0 14.8 0.00 0.00 0.00 62 1008.6
20260508225102 81 203 7.0 12.2 0.00 0.00 0.00 62 1008.6
20260508224521 82 203 5.2 10.4 0.00 0.00 0.00 62 1008.8
20260508224021 82 180 5.2 12.2 0.00 0.00 0.00 62 1008.8
20260508223521 82 203 5.2 10.4 0.00 0.00 0.00 62 1008.9
20260508223041 82 203 7.0 11.3 0.00 0.00 0.00 61 1008.9
20260508222601 82 203 5.2 12.2 0.00 0.00 0.00 60 1008.9
20260508222021 82 203 5.2 10.4 0.00 0.00 0.00 60 1008.9
20260508221521 82 203 6.1 13.0 0.00 0.00 0.00 59 1009.0
20260508221022 82 225 7.0 12.2 0.00 0.00 0.00 60 1009.0
20260508220541 82 203 7.8 12.2 0.00 0.00 0.00 58 1009.0
20260508220021 83 203 6.1 12.2 0.00 0.00 0.00 57 1009.0
20260508215521 83 135 4.3 10.4 0.00 0.00 0.00 58 1009.1
20260508215021 83 158 4.3 8.7 0.00 0.00 0.00 57 1009.2
20260508214521 83 203 5.2 10.4 0.00 0.00 0.00 57 1009.2
20260508214023 82 203 4.3 11.3 0.00 0.00 0.00 58 1009.2
20260508213521 82 203 7.0 13.0 0.00 0.00 0.00 57 1009.2
20260508213021 82 203 6.1 16.5 0.00 0.00 0.00 58 1009.3
20260508212541 82 180 7.0 13.9 0.00 0.00 0.00 58 1009.4
20260508212021 82 203 7.8 13.9 0.00 0.00 0.00 60 1009.4
20260508211521 83 203 8.7 14.8 0.00 0.00 0.00 58 1009.4
20260508211021 83 203 5.2 10.4 0.00 0.00 0.00 57 1009.7
20260508210541 83 135 6.1 15.6 0.00 0.00 0.00 56 1009.7
20260508210021 83 203 5.2 12.2 0.00 0.00 0.00 56 1009.9
20260508205521 84 158 6.1 13.0 0.00 0.00 0.00 56 1010.1
20260508205021 84 203 6.1 13.9 0.00 0.00 0.00 56 1010.0
20260508204521 83 203 6.1 11.3 0.00 0.00 0.00 56 1010.1
20260508204021 84 203 4.3 11.3 0.00 0.00 0.00 57 1010.2
20260508203541 83 180 6.1 13.0 0.00 0.00 0.00 59 1010.3
20260508203101 83 203 6.1 12.2 0.00 0.00 0.00 57 1010.4
20260508202522 82 203 7.0 19.1 0.00 0.00 0.00 58 1010.3
20260508202041 82 203 4.3 9.6 0.00 0.00 0.00 59 1010.5
20260508201521 81 135 5.2 13.9 0.00 0.00 0.00 61 1010.6
20260508201021 81 225 7.8 14.8 0.00 0.00 0.00 58 1010.6
20260508200521 81 203 7.0 16.5 0.00 0.00 0.00 59 1010.7
20260508200022 81 180 7.0 13.9 0.00 0.00 0.00 59 1010.8
20260508195521 81 158 6.1 10.4 0.00 0.00 0.00 60 1010.9
20260508195021 81 158 6.1 13.0 0.00 0.00 0.00 58 1010.9
20260508194521 81 180 6.1 13.9 0.00 0.00 0.00 58 1010.9
20260508194021 82 180 5.2 10.4 0.00 0.00 0.00 58 1011.1
20260508193521 82 158 6.1 12.2 0.00 0.00 0.00 58 1011.1
20260508193022 81 180 5.2 13.0 0.00 0.00 0.00 59 1011.1
20260508192521 81 203 5.2 10.4 0.00 0.00 0.00 58 1011.1
20260508192022 81 158 4.3 7.8 0.00 0.00 0.00 58 1011.2
20260508191541 80 158 5.2 12.2 0.00 0.00 0.00 59 1011.2
20260508191041 80 203 5.2 13.9 0.00 0.00 0.00 56 1011.3
20260508190521 80 158 4.3 11.3 0.00 0.00 0.00 58 1011.3
20260508190022 80 158 4.3 13.0 0.00 0.00 0.00 58 1011.5
20260508185521 79 158 5.2 13.0 0.00 0.00 0.00 58 1011.6
20260508185021 79 203 6.1 15.6 0.00 0.00 0.00 56 1011.7
20260508184521 79 135 4.3 11.3 0.00 0.00 0.00 57 1011.7
20260508184021 79 135 4.3 11.3 0.00 0.00 0.00 58 1011.9
20260508183541 79 203 5.2 11.3 0.00 0.00 0.00 56 1012.0
20260508183041 79 180 4.3 9.6 0.00 0.00 0.00 57 1012.1
20260508182542 79 203 4.3 7.8 0.00 0.00 0.00 56 1012.2
20260508182021 80 135 3.5 11.3 0.00 0.00 0.00 54 1012.3
20260508181521 80 135 4.3 9.6 0.00 0.00 0.00 58 1012.4
20260508181021 79 135 2.6 9.6 0.00 0.00 0.00 57 1012.5
20260508180521 79 135 5.2 11.3 0.00 0.00 0.00 58 1012.7
20260508175541 79 135 3.5 7.0 0.00 0.00 0.00 59 1013.0
20260508175021 78 135 4.3 10.4 0.00 0.00 0.00 60 1013.1
20260508174522 78 203 5.2 11.3 0.00 0.00 0.00 63 1013.2
20260508174021 78 135 4.3 9.6 0.00 0.00 0.00 61 1013.2
20260508173521 77 135 4.3 10.4 0.00 0.00 0.00 57 1013.2
20260508173021 77 135 2.6 7.8 0.00 0.00 0.00 61 1013.3
20260508172521 76 203 5.2 13.0 0.00 0.00 0.00 59 1013.4
20260508172022 76 225 6.1 13.0 0.00 0.00 0.00 60 1013.4
20260508171521 76 203 7.0 13.0 0.00 0.00 0.00 60 1013.5
20260508171041 76 135 6.1 11.3 0.00 0.00 0.00 60 1013.6
20260508170522 76 135 5.2 13.0 0.00 0.00 0.00 61 1013.8
20260508170021 76 180 5.2 13.0 0.00 0.00 0.00 63 1013.8
20260508165521 75 203 4.3 10.4 0.00 0.00 0.00 62 1013.9
20260508165042 75 203 6.1 12.2 0.00 0.00 0.00 62 1014.0
20260508164521 75 135 4.3 9.6 0.00 0.00 0.00 64 1014.0
20260508164023 74 203 5.2 12.2 0.00 0.00 0.00 65 1014.1
20260508163521 74 180 5.2 10.4 0.00 0.00 0.00 65 1014.2
20260508163022 74 180 3.5 7.8 0.00 0.00 0.00 68 1014.4
20260508162541 72 225 3.5 8.7 0.00 0.00 0.00 70 1014.4
20260508162021 72 203 2.6 7.8 0.00 0.00 0.00 68 1014.4
20260508161521 72 158 4.3 10.4 0.00 0.00 0.00 70 1014.6
20260508161026 70 158 3.5 8.7 0.00 0.00 0.00 73 1014.6
20260508160522 69 225 3.5 7.0 0.00 0.00 0.00 75 1014.7
20260508160020 69 225 5.2 8.7 0.00 0.00 0.00 73 1014.7
20260508155626 69 203 5.2 10.4 0.00 0.00 0.00 73 1014.6
20260508155156 68 225 3.5 7.8 0.00 0.00 0.00 77 1014.8
20260508154200 67 180 3.5 7.8 0.00 0.00 0.00 78 1015.0
20260508153802 67 225 3.5 7.8 0.00 0.00 0.00 77 1014.9
20260508153022 67 135 4.3 10.4 0.00 0.00 0.00 77 1014.9
20260508152541 67 203 6.1 13.0 0.00 0.00 0.00 76 1014.8
20260508152021 66 203 6.1 12.2 0.00 0.00 0.00 75 1014.9
20260508151521 66 225 6.1 11.3 0.00 0.00 0.00 76 1014.9
20260508151021 66 225 4.3 11.3 0.00 0.00 0.00 77 1014.9
20260508150521 66 225 3.5 8.7 0.00 0.00 0.00 77 1014.9
20260508150021 66 180 3.5 8.7 0.00 0.00 0.00 78 1015.2
20260508145709 66 203 2.6 6.1 0.00 0.00 0.00 78 1015.2
20260508145023 65 225 4.3 9.6 0.00 0.00 0.00 78 1015.1
20260508144521 65 225 1.7 6.1 0.00 0.00 0.00 80 1015.1
20260508144021 65 225 3.5 7.0 0.00 0.00 0.00 80 1015.3
20260508143520 65 225 5.2 13.0 0.00 0.00 0.00 79 1015.5
20260508143048 65 203 5.2 10.4 0.00 0.00 0.00 79 1015.4
20260508142521 65 248 6.1 9.6 0.00 0.00 0.00 79 1015.8
20260508142020 65 225 7.8 10.4 0.00 0.00 0.00 79 1015.9
20260508141521 65 158 3.5 7.0 0.00 0.00 0.00 81 1015.5
20260508141020 65 180 3.5 6.1 0.00 0.00 0.00 80 1015.7
20260508140521 65 135 2.6 7.8 0.00 0.00 0.00 81 1015.6
20260508140020 64 203 4.3 7.8 0.00 0.00 0.00 82 1015.7
20260508135520 64 203 3.5 7.8 0.00 0.00 0.00 82 1015.7